TimePDT,TemperatureF,Dew PointF,Humidity,Sea Level PressureIn,VisibilityMPH,Wind Direction,Wind SpeedMPH,Gust SpeedMPH,PrecipitationIn,Events,Conditions,WindDirDegrees,DateUTC
12:15 AM,51.8,32.0,47,29.93,10.0,NW,13.8,-,N/A,,Clear,310,2012-10-22 07:15:00
12:55 AM,50.0,30.2,47,29.93,10.0,WNW,10.4,-,N/A,,Clear,290,2012-10-22 07:55:00
1:15 AM,46.4,32.0,57,29.93,10.0,West,9.2,-,N/A,,Clear,270,2012-10-22 08:15:00
1:35 AM,44.6,32.0,61,29.92,10.0,West,9.2,-,N/A,,Clear,270,2012-10-22 08:35:00
1:55 AM,44.6,32.0,61,29.92,10.0,West,8.1,-,N/A,,Clear,270,2012-10-22 08:55:00
2:15 AM,44.6,32.0,61,29.92,10.0,West,8.1,-,N/A,,Clear,270,2012-10-22 09:15:00
2:35 AM,44.6,30.2,57,29.92,10.0,West,8.1,-,N/A,,Clear,270,2012-10-22 09:35:00
2:55 AM,44.6,30.2,57,29.91,10.0,West,5.8,-,N/A,,Clear,280,2012-10-22 09:55:00
3:15 AM,44.6,30.2,57,29.91,10.0,West,4.6,-,N/A,,Clear,260,2012-10-22 10:15:00
3:35 AM,44.6,30.2,57,29.90,10.0,WSW,4.6,-,N/A,,Clear,240,2012-10-22 10:35:00
3:55 AM,42.8,30.2,61,29.90,10.0,West,4.6,-,N/A,,Clear,280,2012-10-22 10:55:00
4:15 AM,41.0,28.4,61,29.90,10.0,NW,3.5,-,N/A,,Clear,310,2012-10-22 11:15:00
4:35 AM,41.0,30.2,65,29.90,10.0,West,4.6,-,N/A,,Clear,260,2012-10-22 11:35:00
4:55 AM,42.8,30.2,61,29.91,10.0,West,5.8,-,N/A,,Clear,270,2012-10-22 11:55:00
5:15 AM,44.6,28.4,53,29.91,10.0,NW,8.1,-,N/A,,Clear,310,2012-10-22 12:15:00
5:35 AM,44.6,32.0,61,29.92,10.0,West,5.8,-,N/A,,Clear,260,2012-10-22 12:35:00
5:55 AM,44.6,30.2,57,29.92,10.0,WSW,5.8,-,N/A,,Clear,250,2012-10-22 12:55:00
6:15 AM,41.0,30.2,65,29.92,10.0,West,5.8,-,N/A,,Clear,280,2012-10-22 13:15:00
6:35 AM,42.8,32.0,66,29.93,10.0,West,5.8,-,N/A,,Clear,260,2012-10-22 13:35:00
6:55 AM,41.0,32.0,70,29.93,10.0,WNW,5.8,-,N/A,,Clear,290,2012-10-22 13:55:00
7:15 AM,44.6,35.6,71,29.93,9.0,NW,8.1,-,N/A,,Clear,320,2012-10-22 14:15:00
7:35 AM,46.4,37.4,71,29.94,10.0,NW,9.2,-,N/A,,Clear,320,2012-10-22 14:35:00
7:55 AM,48.2,37.4,66,29.94,8.0,NW,5.8,-,N/A,,Clear,320,2012-10-22 14:55:00
8:15 AM,50.0,37.4,62,29.95,9.0,WNW,3.5,-,N/A,,Clear,290,2012-10-22 15:15:00
8:35 AM,53.6,37.4,54,29.95,10.0,NW,9.2,-,N/A,,Clear,320,2012-10-22 15:35:00
8:55 AM,53.6,37.4,54,29.96,9.0,NW,8.1,-,N/A,,Clear,320,2012-10-22 15:55:00
9:15 AM,53.6,37.4,54,29.96,10.0,NNW,6.9,-,N/A,,Clear,330,2012-10-22 16:15:00
9:35 AM,55.4,35.6,47,29.96,10.0,NW,8.1,-,N/A,,Clear,310,2012-10-22 16:35:00
9:55 AM,57.2,32.0,38,29.96,10.0,NW,10.4,-,N/A,,Partly Cloudy,320,2012-10-22 16:55:00
10:15 AM,59.0,32.0,36,29.96,9.0,WNW,8.1,-,N/A,,Partly Cloudy,300,2012-10-22 17:15:00
10:35 AM,60.8,32.0,34,29.96,0.2,NW,12.7,17.3,N/A,,Haze,320,2012-10-22 17:35:00
10:55 AM,60.8,32.0,34,29.96,9.0,NW,13.8,20.7,N/A,,Clear,320,2012-10-22 17:55:00
11:15 AM,62.6,28.4,27,29.96,10.0,NW,16.1,21.9,N/A,,Mostly Cloudy,320,2012-10-22 18:15:00
11:35 AM,62.6,26.6,26,29.96,10.0,NW,15.0,18.4,N/A,,Unknown,310,2012-10-22 18:35:00
11:55 AM,59.0,24.8,27,29.96,10.0,NW,15.0,24.2,N/A,,Overcast,320,2012-10-22 18:55:00
12:15 PM,59.0,26.6,29,29.96,10.0,NW,12.7,18.4,N/A,,Overcast,310,2012-10-22 19:15:00
12:35 PM,59.0,28.4,31,29.95,10.0,NNW,15.0,21.9,N/A,,Scattered Clouds,330,2012-10-22 19:35:00
12:55 PM,59.0,32.0,36,29.94,10.0,NW,16.1,-,N/A,,Partly Cloudy,320,2012-10-22 19:55:00
1:15 PM,62.6,32.0,32,29.93,9.0,NW,12.7,17.3,N/A,,Clear,310,2012-10-22 20:15:00
1:35 PM,62.6,32.0,32,29.93,10.0,NW,17.3,23.0,N/A,,Mostly Cloudy,320,2012-10-22 20:35:00
1:55 PM,59.0,33.8,39,29.93,10.0,NW,18.4,25.3,N/A,,Mostly Cloudy,320,2012-10-22 20:55:00
2:15 PM,57.2,33.8,41,29.93,10.0,NW,16.1,-,N/A,,Mostly Cloudy,320,2012-10-22 21:15:00
2:35 PM,59.0,35.6,42,29.93,10.0,NNW,16.1,24.2,N/A,,Mostly Cloudy,330,2012-10-22 21:35:00
2:55 PM,57.2,35.6,44,29.93,10.0,NW,16.1,21.9,N/A,,Mostly Cloudy,320,2012-10-22 21:55:00
3:15 PM,57.2,33.8,41,29.93,10.0,NW,17.3,24.2,N/A,,Mostly Cloudy,320,2012-10-22 22:15:00
3:35 PM,57.2,33.8,41,29.93,10.0,NW,17.3,20.7,N/A,,Mostly Cloudy,310,2012-10-22 22:35:00
3:55 PM,57.2,33.8,41,29.94,10.0,NW,13.8,17.3,N/A,,Mostly Cloudy,320,2012-10-22 22:55:00
4:15 PM,57.2,35.6,44,29.94,10.0,WNW,9.2,-,N/A,,Mostly Cloudy,300,2012-10-22 23:15:00
4:35 PM,55.4,33.8,44,29.93,10.0,NW,15.0,-,N/A,,Overcast,320,2012-10-22 23:35:00
4:55 PM,55.4,35.6,47,29.94,10.0,NW,13.8,17.3,N/A,,Overcast,320,2012-10-22 23:55:00
5:15 PM,55.4,35.6,47,29.94,10.0,NW,11.5,18.4,N/A,,Overcast,320,2012-10-23 00:15:00
5:35 PM,55.4,35.6,47,29.94,10.0,WNW,9.2,-,N/A,,Overcast,300,2012-10-23 00:35:00
5:55 PM,53.6,35.6,51,29.95,10.0,WNW,11.5,-,N/A,,Overcast,290,2012-10-23 00:55:00
6:15 PM,51.8,35.6,54,29.94,10.0,WNW,13.8,18.4,N/A,,Overcast,300,2012-10-23 01:15:00
6:55 PM,50.0,35.6,58,29.95,10.0,NNW,16.1,21.9,N/A,,Overcast,330,2012-10-23 01:55:00
7:15 PM,50.0,37.4,62,29.97,10.0,NW,11.5,-,N/A,,Overcast,310,2012-10-23 02:15:00
7:35 PM,50.0,39.2,66,29.97,10.0,NNW,16.1,20.7,N/A,,Overcast,330,2012-10-23 02:35:00
7:55 PM,48.2,39.2,71,29.97,10.0,NW,11.5,-,N/A,,Overcast,310,2012-10-23 02:55:00
8:15 PM,48.2,41.0,76,29.98,10.0,NW,13.8,17.3,N/A,,Overcast,310,2012-10-23 03:15:00
8:35 PM,48.2,41.0,76,29.98,10.0,NW,11.5,-,N/A,,Overcast,320,2012-10-23 03:35:00
8:55 PM,48.2,42.8,82,29.97,10.0,NW,9.2,-,N/A,,Overcast,310,2012-10-23 03:55:00
9:15 PM,46.4,44.6,93,29.97,10.0,NW,9.2,-,N/A,,Overcast,320,2012-10-23 04:15:00
9:35 PM,46.4,44.6,93,29.98,10.0,NW,8.1,-,N/A,,Overcast,310,2012-10-23 04:35:00
9:55 PM,46.4,44.6,93,29.98,10.0,NW,9.2,-,N/A,,Overcast,310,2012-10-23 04:55:00
10:15 PM,46.4,44.6,93,29.98,4.0,NW,11.5,-,N/A,,Overcast,310,2012-10-23 05:15:00
10:35 PM,46.4,44.6,93,29.98,0.2,NW,15.0,20.7,N/A,Fog,Fog,310,2012-10-23 05:35:00
10:55 PM,46.4,46.4,100,29.99,0.2,NW,15.0,20.7,N/A,Rain,Light Rain,310,2012-10-23 05:55:00
11:15 PM,44.6,44.6,100,29.99,0.2,NW,19.6,26.5,N/A,Rain,Light Rain,320,2012-10-23 06:15:00
11:35 PM,42.8,42.8,100,29.99,5.0,NW,19.6,24.2,N/A,Rain,Light Rain,310,2012-10-23 06:35:00
11:55 PM,42.8,42.8,100,29.98,5.0,NW,17.3,26.5,N/A,Rain,Light Rain,320,2012-10-23 06:55:00